Weather History for Port Angeles, WA

Change the Weather History Date:

Sunday, October 20, 2013

  Actual Average Record
Temperature  
Mean Temperature 47 °F -  
Max Temperature 50 °F 55 °F 64 °F (1999)
Min Temperature 44 °F 41 °F 31 °F (1961)
Degree Days  
Heating Degree Days 18    
Moisture  
Dew Point 45 °F    
Average Humidity 94    
Maximum Humidity 100    
Minimum Humidity 86    
Precipitation  
Precipitation 0.00 in - - ()
Sea Level Pressure  
Sea Level Pressure 30.19 in    
Wind  
Wind Speed 5 mph (ESE)    
Max Wind Speed 7 mph    
Max Gust Speed -    
Visibility 4 miles    
Events Fog    
Averages and records for this station are not official NWS values.
T = Trace of Precipitation, MM = Missing Value Source: NWS Daily Summary

Daily Weather History Graph

Daily Weather History Graph

Search for Another Location

Airport:

Trip Planner

Search our weather history database for the weather conditions in past years. The results will help you decide how hot, cold, wet, or windy it might be!

Date:

Astronomy

Oct. 20, 2013 Rise Set
Actual Time 7:41 AM PDT 6:15 PM PDT
Civil Twilight 7:09 AM PDT 6:46 PM PDT
Nautical Twilight 6:33 AM PDT 7:22 PM PDT
Astronomical Twilight 5:57 AM PDT 7:58 PM PDT
Moon 7:18 PM PDT 9:33 AM PDT
Length of Visible Light 11h 37m
Length of Day
10h 33m
Waning Gibbous, 97% of the Moon is Illuminated
Oct 20
Waning Gibbous
Oct 26
Last Quarter
Nov 3
New
Nov 9
First Quarter
Nov 17
Full

Hourly Weather History & Observations

Time (PDT) Temp. Windchill Dew Point Humidity Pressure Visibility Wind Dir Wind Speed Gust Speed Precip Events Conditions
12:50 AM 44.6 °F 41.4 °F 44.6 °F 100% 30.21 in 1.0 mi SSE 5.8 mph - N/A   Overcast
12:53 AM 45.0 °F 41.8 °F 44.1 °F 97% 30.22 in 1.2 mi SE 5.8 mph - N/A   Overcast
1:18 AM 45.0 °F 42.6 °F 44.1 °F 97% 30.21 in 1.2 mi SE 4.6 mph - N/A   Overcast
1:36 AM 45.0 °F 43.5 °F 44.1 °F 97% 30.21 in 2.0 mi South 3.5 mph - N/A   Overcast
1:53 AM 45.0 °F 43.5 °F 44.1 °F 97% 30.22 in 1.8 mi South 3.5 mph - N/A   Overcast
2:53 AM 45.0 °F 43.5 °F 44.1 °F 97% 30.21 in 2.0 mi SE 3.5 mph - N/A   Overcast
3:53 AM 45.0 °F 42.6 °F 44.1 °F 97% 30.21 in 3.0 mi ESE 4.6 mph - N/A   Overcast
4:53 AM 45.0 °F 42.6 °F 44.1 °F 97% 30.21 in 7.0 mi ESE 4.6 mph - N/A   Overcast
5:53 AM 46.0 °F 43.9 °F 44.1 °F 93% 30.21 in 4.0 mi SSE 4.6 mph - N/A   Overcast
6:53 AM 46.0 °F 43.1 °F 44.1 °F 93% 30.21 in 5.0 mi SE 5.8 mph - N/A   Overcast
7:53 AM 45.0 °F 41.8 °F 44.1 °F 97% 30.21 in 6.0 mi SSE 5.8 mph - N/A   Overcast
8:37 AM 46.0 °F 43.1 °F 44.1 °F 93% 30.21 in 2.5 mi SSE 5.8 mph - N/A   Overcast
8:53 AM 46.0 °F 43.1 °F 44.1 °F 93% 30.22 in 4.0 mi SE 5.8 mph - N/A   Overcast
9:53 AM 46.9 °F - 45.0 °F 93% 30.22 in 5.0 mi SSE 5.8 mph - N/A   Overcast
10:53 AM 46.9 °F - 45.0 °F 93% 30.22 in 8.0 mi SSE 6.9 mph - N/A   Overcast
11:53 AM 48.0 °F - 46.0 °F 93% 30.22 in 9.0 mi SE 6.9 mph - N/A   Overcast
12:29 PM 48.9 °F - 46.0 °F 90% 30.21 in 10.0 mi Variable 4.6 mph - N/A   Overcast
12:53 PM 48.9 °F - 46.0 °F 90% 30.22 in 10.0 mi East 6.9 mph - N/A   Overcast
1:53 PM 50.0 °F - 46.9 °F 89% 30.19 in 10.0 mi East 5.8 mph - N/A   Overcast
2:53 PM 50.0 °F - 46.0 °F 86% 30.18 in 10.0 mi ENE 4.6 mph - N/A   Overcast
3:53 PM 50.0 °F - 46.0 °F 86% 30.17 in 10.0 mi East 5.8 mph - N/A   Overcast
4:15 PM 50.0 °F - 46.0 °F 86% 30.17 in 10.0 mi East 6.9 mph - N/A   Overcast
4:53 PM 48.9 °F - 46.0 °F 90% 30.17 in 10.0 mi East 4.6 mph - N/A   Overcast
5:53 PM 48.0 °F - 46.0 °F 93% 30.16 in 6.0 mi East 5.8 mph - N/A   Overcast
6:53 PM 48.0 °F - 46.0 °F 93% 30.16 in 5.0 mi East 4.6 mph - N/A   Overcast
7:20 PM 48.0 °F - 46.0 °F 93% 30.16 in 2.5 mi East 3.5 mph - N/A   Overcast
7:53 PM 48.0 °F - 46.0 °F 93% 30.17 in 2.5 mi East 6.9 mph - N/A   Overcast
8:16 PM 46.9 °F - 46.0 °F 97% 30.16 in 1.8 mi East 5.8 mph - N/A   Overcast
8:38 PM 46.9 °F - 46.0 °F 97% 30.17 in 0.8 mi East 6.9 mph - N/A   Mist
8:53 PM 46.9 °F - 46.0 °F 97% 30.18 in 0.5 mi East 5.8 mph - N/A Fog Fog
9:31 PM 46.9 °F - 46.0 °F 97% 30.18 in 0.2 mi ESE 5.8 mph - N/A Fog Fog
9:53 PM 46.9 °F - 46.0 °F 97% 30.18 in 0.2 mi ESE 4.6 mph - N/A Fog Fog
10:53 PM 46.0 °F 43.1 °F 45.0 °F 96% 30.18 in 0.2 mi East 5.8 mph - N/A Fog Fog
11:20 PM 46.0 °F 43.1 °F 45.0 °F 96% 30.18 in 0.5 mi ESE 5.8 mph - N/A Fog Fog
11:53 PM 46.0 °F 42.5 °F 45.0 °F 96% 30.18 in 0.5 mi ESE 6.9 mph - N/A Fog Fog